Twin Falls, ID

5:33 PM MST on December 09, 2016 (GMT -0700)
Joslin Field-Magic Valley Regional

Weather History for KTWF - October, 2011

Change the Weather History Date:

Tuesday, October 4, 2011

  Actual Average Record
Temperature  
Mean Temperature 61 °F -  
Max Temperature 69 °F 69 °F 87 °F (1987)
Min Temperature 52 °F 41 °F 27 °F (2012)
Degree Days  
Heating Degree Days 4 10  
Month to date heating degree days 4 39  
Since 1 July heating degree days 16 200  
Cooling Degree Days 0 0  
Month to date cooling degree days 20 0  
Year to date cooling degree days 736 678  
Growing Degree Days 10 (Base 50)    
Moisture  
Dew Point 47 °F    
Average Humidity 66    
Maximum Humidity 93    
Minimum Humidity 39    
Precipitation  
Precipitation 0.11 in 0.02 in 0.40 in (1989)
Month to date precipitation 0.13 0.08  
Year to date precipitation 7.26 7.53  
Sea Level Pressure  
Sea Level Pressure 29.66 in    
Wind  
Wind Speed 9 mph (SSE)    
Max Wind Speed 29 mph    
Max Gust Speed 37 mph    
Visibility 10 miles    
Events Rain    
T = Trace of Precipitation, MM = Missing Value Source: NWS Daily Summary

Daily Weather History Graph

Daily Weather History Graph

Search for Another Location

Airport or City:

Trip Planner

Search our weather history database for the weather conditions in past years. The results will help you decide how hot, cold, wet, or windy it might be!

Date:

Astronomy

Oct. 04, 2011 Rise Set
Actual Time 7:38 AM MDT 7:14 PM MDT
Civil Twilight 7:10 AM MDT 7:42 PM MDT
Nautical Twilight 6:37 AM MDT 8:15 PM MDT
Astronomical Twilight 6:04 AM MDT 8:47 PM MDT
Moon 3:26 PM MDT (10/4) 12:17 AM MDT (10/4)
Length of Visible Light 12h 32m
Length of Day
11h 36m
First Quarter, 56% of the Moon is Illuminated
Oct 4
First Quarter
Oct 11
Full
Oct 19
Last Quarter
Oct 26
New
Nov 2
First Quarter

Hourly Weather History & Observations

Time (MDT) Temp. Dew Point Humidity Pressure Visibility Wind Dir Wind Speed Gust Speed Precip Events Conditions
12:53 AM 68.0 °F 42.1 °F 39% 29.58 in 10.0 mi SSE 26.5 mph 34.5 mph N/A   Clear
1:53 AM 66.9 °F 42.1 °F 40% 29.59 in 10.0 mi SSE 27.6 mph 36.8 mph N/A   Clear
2:53 AM 68.0 °F 42.1 °F 39% 29.59 in 10.0 mi South 18.4 mph 27.6 mph N/A   Clear
3:53 AM 66.9 °F 44.1 °F 44% 29.61 in 10.0 mi South 21.9 mph 28.8 mph N/A   Clear
4:53 AM 66.2 °F 44.6 °F 46% 29.78 in 10.0 mi South 16.1 mph 24.2 mph N/A   Scattered Clouds
5:53 AM 55.9 °F 46.9 °F 72% 29.69 in 4.0 mi SW 25.3 mph 33.4 mph 0.04 in Rain Rain
6:53 AM 53.1 °F 46.0 °F 77% 29.72 in 10.0 mi South 12.7 mph - 0.01 in   Mostly Cloudy
7:53 AM 53.1 °F 45.0 °F 74% 29.75 in 10.0 mi South 9.2 mph - N/A   Clear
8:53 AM 54.0 °F 46.0 °F 75% 29.75 in 10.0 mi South 6.9 mph - N/A   Partly Cloudy
9:53 AM 57.9 °F 46.0 °F 65% 29.73 in 10.0 mi Calm Calm - N/A   Scattered Clouds
10:53 AM 63.0 °F 48.0 °F 58% 29.70 in 10.0 mi Calm Calm - N/A   Partly Cloudy
11:53 AM 64.4 °F 46.4 °F 52% 29.83 in 10.0 mi North 4.6 mph - N/A   Scattered Clouds
12:53 PM 64.9 °F 45.0 °F 48% 29.67 in 10.0 mi NE 4.6 mph - N/A   Overcast
1:53 PM 68.0 °F 46.9 °F 47% 29.62 in 10.0 mi NNE 9.2 mph - N/A   Scattered Clouds
2:53 PM 68.0 °F 46.9 °F 47% 29.59 in 10.0 mi NNE 4.6 mph - N/A   Overcast
3:53 PM 62.6 °F 48.2 °F 59% 29.75 in 10.0 mi West 23.0 mph 29.9 mph N/A   Mostly Cloudy
4:53 PM 59.0 °F 50.0 °F 72% 29.62 in 10.0 mi West 6.9 mph - 0.02 in   Overcast
5:53 PM 59.0 °F 50.0 °F 72% 29.75 in 10.0 mi NW 6.9 mph - N/A   Mostly Cloudy
7:53 PM 55.0 °F 50.0 °F 83% 29.63 in 10.0 mi ESE 5.8 mph - 0.01 in   Mostly Cloudy
8:53 PM 54.0 °F 50.0 °F 86% 29.63 in 10.0 mi Calm Calm - N/A   Clear
9:53 PM 54.0 °F 51.1 °F 90% 29.60 in 10.0 mi ESE 3.5 mph - N/A   Mostly Cloudy
10:53 PM 55.9 °F 48.9 °F 77% 29.55 in 10.0 mi SSE 4.6 mph - 0.00 in   Overcast
11:53 PM 55.0 °F 50.0 °F 83% 29.53 in 10.0 mi ENE 5.8 mph - 0.00 in   Overcast